[[{"header":{"parameterUnit":"m.s-1","parameterCategory":1,"la1":30.2991,"la2":30.254,"lo1":-89.0895,"lo2":-89.0444,"dy":0.0017,"dx":0.0017,"nx":28,"ny":28,"refTime":"2025-03-20T03:00:00:Z","depth":0,"parameterNumber":2,"parameterNumberName":"U-component_of_WINDS"},"data":[0,0,0,0,0,0,0,0,0,0,0,0,0,0,0,0,0,0,0,0,0,0,0,0,0,0,0,0,0,0,0,0,0,0,0,0,0,0,0,0,0,0,0,0,0,0,0,0,0,0,0,0,0,0,0,0,0,0,-1.8048,-1.8047,0,-1.7957,-1.7956,-1.7955,-1.7854,-1.7852,-1.7851,-1.7849,-1.7754,-1.7753,-1.7752,0,0,0,0,0,0,0,0,0,0,0,0,0,-1.8136,-1.8135,-1.8049,-1.8047,-1.8046,-1.7957,-1.7956,-1.7954,-1.7854,-1.7852,-1.785,-1.7849,-1.7755,-1.7753,-1.7752,0,0,0,0,0,0,0,0,0,0,0,0,0,-1.8077,-1.8135,-1.8049,-1.7985,-1.7979,-1.7957,-1.7956,-1.7954,-1.7854,-1.7852,-1.785,-1.7848,-1.7755,-1.7753,-1.7752,-1.7785,0,0,-1.7746,-1.7745,0,0,0,0,0,0,0,0,-1.808,-1.8073,-1.7996,-1.799,-1.7982,-1.7914,-1.7952,-1.7897,-1.7855,-1.7901,-1.7849,-1.7847,-1.7809,-1.7803,-1.779,-1.778,-1.7776,-1.7746,-1.7745,-1.7744,-1.7744,0,0,0,0,0,0,0,-1.8084,-1.8077,-1.8012,-1.7995,-1.7986,-1.7961,-1.795,-1.7941,-1.7869,-1.7897,-1.789,-1.788,-1.7805,-1.7792,-1.7787,-1.7775,-1.7746,-1.7745,-1.7743,-1.7743,-1.7788,-1.779,0,0,0,0,0,0,-1.8098,-1.8081,-1.8015,-1.8009,-1.8027,-1.7962,-1.7949,-1.7938,-1.7869,-1.7856,-1.7882,-1.7876,-1.7796,-1.779,-1.7784,-1.7818,-1.7744,-1.7743,-1.7742,-1.7786,-1.7789,-1.7791,0,0,0,0,0,0,-1.81,-1.8093,-1.8019,-1.8043,-1.8032,-1.7962,-1.7951,-1.7938,-1.7925,-1.7857,-1.7844,-1.7883,-1.7794,-1.7786,-1.7786,-1.7813,-1.7742,-1.774,-1.7783,-1.7787,-1.779,-1.7888,0,0,0,0,0,0,-1.8103,-1.8095,-1.8106,-1.8044,-1.8031,-1.8023,-1.7953,-1.7938,-1.7922,-1.7913,-1.7854,-1.7842,-1.7792,-1.7789,-1.7784,-1.781,-1.7739,-1.778,-1.7785,-1.7789,-1.7882,-1.7894,-1.7905,0,0,0,0,0,-1.8107,-1.8137,-1.8108,-1.81,-1.8044,-1.8024,-1.8017,-1.7959,-1.7925,-1.7936,-1.7893,-1.7844,-1.7812,-1.779,-1.7783,-1.7809,-1.7778,-1.7784,-1.7789,-1.7877,-1.7892,-1.7904,0,0,0,0,0,0,-1.8204,-1.8128,-1.8094,-1.8105,-1.8072,-1.8007,-1.802,-1.7977,-1.7952,-1.7944,-1.7873,-1.7861,-1.7869,-1.7839,-1.7815,-1.7838,-1.7788,-1.7792,-1.7857,-1.7871,-1.7882,-1.7889,-1.7737,0,0,0,0,0,-1.8227,-1.8217,-1.8151,-1.8167,-1.8152,-1.809,-1.8078,-1.8037,-1.8,-1.7985,-1.7941,-1.7907,-1.7889,-1.7878,-1.7858,-1.7877,-1.7863,-1.7892,-1.7904,-1.7913,-1.7917,-1.7926,-1.7938,-1.7808,-1.7808,-1.7808,0,0,-1.8273,-1.8231,-1.8229,-1.8186,-1.8155,-1.8147,-1.8078,-1.8072,-1.8065,-1.7984,-1.798,-1.7948,-1.7904,-1.7915,-1.7917,-1.789,-1.7951,-1.792,-1.7928,-1.7927,-1.7933,-1.7945,-1.7956,-1.7811,-1.7811,-1.781,0,0,-1.8354,-1.8321,-1.8331,-1.8302,-1.8257,-1.8215,-1.8218,-1.816,-1.8135,-1.8131,-1.8071,-1.8061,-1.8032,-1.8004,-1.7985,-1.8058,-1.8012,-1.8053,-1.8113,-1.8122,-1.8133,-1.8141,-1.8167,-1.8177,-1.8058,-1.8058,-1.8058,0,-1.8417,-1.8402,-1.8341,-1.8339,-1.8322,-1.825,-1.826,-1.8234,-1.8185,-1.8175,-1.8146,-1.8108,-1.8074,-1.8076,-1.8095,-1.8082,-1.8083,-1.8059,-1.8136,-1.8144,-1.8152,-1.8175,-1.8185,-1.8063,-1.8063,-1.8062,-1.8062,0,-1.8482,-1.8473,-1.8487,-1.8442,-1.8427,-1.8431,-1.8371,-1.8363,-1.8323,-1.8285,-1.8282,-1.8239,-1.8209,-1.8207,-1.8167,-1.8204,-1.8189,-1.8149,-1.8097,-1.817,-1.8192,-1.82,-1.8071,-1.8069,-1.8068,-1.8066,0,0,-1.8619,-1.8543,-1.8549,-1.8528,-1.8474,-1.8465,-1.8467,-1.8438,-1.8433,-1.8402,-1.8401,-1.8378,-1.8342,-1.8321,-1.8279,-1.8287,-1.8348,-1.8246,-1.8244,-1.8267,-1.8386,-1.8416,-1.8427,-1.8318,-1.8319,-1.832,-1.839,0,-1.869,-1.8688,-1.8634,-1.8647,-1.8638,-1.857,-1.8571,-1.8538,-1.8503,-1.849,-1.845,-1.8436,-1.8389,-1.8376,-1.8381,-1.834,-1.8371,-1.8334,-1.8316,-1.8316,-1.8328,-1.8438,-1.847,-1.8537,-1.8397,-1.8399,-1.84,0,-1.8772,-1.8747,-1.8759,-1.8706,-1.87,-1.8702,-1.8672,-1.8661,-1.8623,-1.8596,-1.8575,-1.8527,-1.8525,-1.8477,-1.8473,-1.8449,-1.8439,-1.8418,-1.8419,-1.8414,-1.8362,-1.8437,-1.8557,-1.8567,-1.8412,-1.8411,-1.841,0,-1.8871,-1.884,-1.8843,-1.8828,-1.8766,-1.8769,-1.8743,-1.8703,-1.869,-1.8664,-1.8655,-1.8629,-1.8614,-1.8596,-1.8542,-1.8513,-1.8545,-1.8492,-1.8523,-1.8524,-1.8531,-1.8532,-1.8652,-1.8526,-1.8526,-1.8526,-1.8526,0,-1.8954,-1.8965,-1.8887,-1.8889,-1.8899,-1.8838,-1.8849,-1.8816,-1.8782,-1.8776,-1.8716,-1.8713,-1.8643,-1.8632,-1.859,-1.8593,-1.8587,-1.8566,-1.8555,-1.8571,-1.8574,-1.8562,-1.8556,-1.8529,-1.8528,-1.8527,-1.8527,0,-1.9066,-1.9014,-1.9014,-1.8956,-1.8942,-1.8952,-1.8902,-1.8901,-1.8863,-1.8858,-1.8853,-1.8792,-1.8776,-1.8722,-1.8692,-1.8664,-1.868,-1.8658,-1.8693,-1.8685,-1.8719,-1.8716,-1.8835,-1.8848,-1.8716,-1.8717,-1.8718,0,-1.9122,-1.9129,-1.9072,-1.9065,-1.9042,-1.9031,-1.9017,-1.8958,-1.8946,-1.8904,-1.8909,-1.8888,-1.8868,-1.8846,-1.8799,-1.8776,-1.8754,-1.8797,-1.8749,-1.8766,-1.8754,-1.8754,-1.8755,-1.8807,-1.8809,-1.881,-1.8811,0,-1.9228,-1.9203,-1.9186,-1.9161,-1.9147,-1.9124,-1.9098,-1.9095,-1.9029,-1.9019,-1.9002,-1.8987,-1.8957,-1.8937,-1.8907,-1.888,-1.8835,-1.8827,-1.8833,-1.8849,-1.8869,-1.8858,-1.872,-1.8824,-1.8823,-1.8822,-1.8821,-1.8821,-1.9313,-1.9316,-1.9278,-1.9261,-1.9236,-1.9213,-1.921,-1.9172,-1.9157,-1.9129,-1.9094,-1.9082,-1.9045,-1.9,-1.8977,-1.8966,-1.8941,-1.895,-1.8951,-1.8954,-1.8962,-1.8871,-1.896,-1.896,-1.8959,-1.8959,-1.8959,0,-1.9416,-1.9388,-1.9374,-1.934,-1.9327,-1.9287,-1.9256,-1.9248,-1.9238,-1.9208,-1.919,-1.9171,-1.9152,-1.9105,-1.9081,-1.9082,-1.9061,-1.9078,-1.9077,-1.9072,-1.8986,-1.8983,-1.9096,-1.9096,-1.9096,-1.9096,-1.9096,-1.9096,-1.9468,-1.9471,-1.9442,-1.9432,-1.9403,-1.9391,-1.9377,-1.9356,-1.9331,-1.9314,-1.9298,-1.9268,-1.923,-1.9204,-1.9185,-1.9172,-1.9166,-1.919,-1.917,-1.909,-1.9077,-1.9065,-1.9062,-1.9189,-1.9189,-1.9256,-1.9257,-1.9257]},{"header":{"parameterUnit":"m.s-1","parameterCategory":1,"la1":30.2991,"la2":30.254,"lo1":-89.0895,"lo2":-89.0444,"dy":0.0017,"dx":0.0017,"nx":28,"ny":28,"refTime":"2025-03-20T03:00:00:Z","depth":0,"parameterNumber":3,"parameterNumberName":"V-component_of_WINDS"},"data":[0,0,0,0,0,0,0,0,0,0,0,0,0,0,0,0,0,0,0,0,0,0,0,0,0,0,0,0,0,0,0,0,0,0,0,0,0,0,0,0,0,0,0,0,0,0,0,0,0,0,0,0,0,0,0,0,0,0,1.6582,1.6582,0,1.6547,1.6546,1.6546,1.6568,1.6569,1.657,1.6571,1.6532,1.653,1.6528,0,0,0,0,0,0,0,0,0,0,0,0,0,1.6667,1.6665,1.6582,1.6582,1.6581,1.6547,1.6546,1.6546,1.6568,1.6569,1.657,1.6572,1.6532,1.653,1.6527,0,0,0,0,0,0,0,0,0,0,0,0,0,1.663,1.6664,1.6582,1.6588,1.6588,1.6547,1.6546,1.6546,1.6567,1.6569,1.6571,1.6572,1.6533,1.653,1.6527,1.6477,0,0,1.6518,1.6517,0,0,0,0,0,0,0,0,1.6632,1.6627,1.6588,1.6588,1.6588,1.6563,1.6562,1.6522,1.6567,1.6575,1.6571,1.6573,1.6541,1.6537,1.6527,1.6475,1.6473,1.6518,1.6516,1.6514,1.6514,0,0,0,0,0,0,0,1.6635,1.6629,1.6568,1.6587,1.6587,1.6592,1.6588,1.6554,1.6549,1.6575,1.6576,1.6572,1.6541,1.653,1.6526,1.6473,1.6518,1.6515,1.6513,1.6512,1.6378,1.6376,0,0,0,0,0,0,1.6637,1.6631,1.6569,1.6567,1.6615,1.6589,1.6585,1.657,1.655,1.6549,1.6571,1.6573,1.6534,1.653,1.6525,1.6465,1.6514,1.6512,1.651,1.638,1.6378,1.6376,0,0,0,0,0,0,1.6639,1.6632,1.6571,1.6599,1.6592,1.6586,1.6568,1.6568,1.6557,1.6547,1.6546,1.656,1.6535,1.6529,1.6489,1.6463,1.651,1.6507,1.6382,1.6379,1.6377,1.6344,0,0,0,0,0,0,1.6641,1.6632,1.6613,1.6599,1.659,1.6536,1.6567,1.6566,1.6552,1.6555,1.6537,1.6535,1.6536,1.6493,1.6486,1.646,1.6505,1.6384,1.6381,1.6378,1.6347,1.634,1.6334,0,0,0,0,0,1.6644,1.6605,1.6612,1.6605,1.6567,1.6534,1.6529,1.6532,1.655,1.6531,1.6524,1.6536,1.6468,1.6489,1.6481,1.6454,1.6386,1.6382,1.6378,1.635,1.6341,1.6335,0,0,0,0,0,0,1.6615,1.6603,1.6611,1.6566,1.6551,1.6538,1.6514,1.6523,1.6502,1.6505,1.6509,1.6504,1.6462,1.6454,1.6478,1.6404,1.6429,1.6424,1.6411,1.6403,1.6397,1.6399,1.6503,0,0,0,0,0,1.6603,1.6579,1.6569,1.653,1.6522,1.6519,1.6505,1.6509,1.6493,1.6486,1.6477,1.6461,1.6436,1.6419,1.6396,1.6347,1.6343,1.6324,1.6318,1.6313,1.6307,1.628,1.6272,1.6363,1.6363,1.6363,0,0,1.6578,1.6569,1.6553,1.6524,1.6513,1.6486,1.6514,1.6484,1.6465,1.6482,1.6443,1.6436,1.6418,1.6373,1.6353,1.6365,1.6281,1.6308,1.6304,1.6301,1.6276,1.6267,1.6259,1.636,1.6361,1.6361,0,0,1.652,1.651,1.6477,1.6466,1.6449,1.6448,1.644,1.6426,1.6422,1.6384,1.6396,1.6373,1.633,1.6316,1.6304,1.6242,1.6252,1.6235,1.6201,1.6175,1.6168,1.6162,1.6139,1.6131,1.6229,1.6229,1.6229,0,1.6491,1.6452,1.6458,1.6428,1.6415,1.6431,1.6396,1.6385,1.6361,1.6351,1.6366,1.6313,1.6302,1.6254,1.6239,1.6229,1.6219,1.6236,1.6169,1.6162,1.6157,1.6135,1.6126,1.6227,1.6227,1.6228,1.6228,0,1.6417,1.639,1.6365,1.6343,1.6327,1.6295,1.6295,1.6278,1.6284,1.6281,1.6242,1.623,1.6204,1.6193,1.6198,1.6146,1.6154,1.6169,1.6194,1.6146,1.6125,1.6117,1.6224,1.6225,1.6226,1.6226,0,0,1.6337,1.632,1.631,1.6301,1.6285,1.6264,1.6233,1.6209,1.6194,1.6178,1.6151,1.6115,1.6129,1.6115,1.6118,1.6095,1.6047,1.6113,1.6112,1.61,1.5988,1.5977,1.5967,1.6054,1.6052,1.6051,1.599,0,1.6277,1.6223,1.6228,1.6177,1.6152,1.6168,1.6141,1.6127,1.6124,1.6102,1.6098,1.6072,1.6093,1.6084,1.6063,1.6057,1.6024,1.6062,1.6028,1.6027,1.6031,1.5957,1.5944,1.5887,1.5982,1.5981,1.598,0,1.6199,1.6181,1.6128,1.6116,1.6106,1.6081,1.606,1.6039,1.6025,1.6024,1.6009,1.6017,1.5985,1.6012,1.5968,1.5993,1.598,1.5975,1.5973,1.5969,1.5999,1.5949,1.5868,1.5859,1.5967,1.5968,1.5969,0,1.6145,1.6107,1.6071,1.6062,1.6048,1.603,1.6023,1.6011,1.5996,1.5978,1.5968,1.5946,1.5933,1.5916,1.5917,1.5937,1.5872,1.5899,1.5869,1.5869,1.5854,1.5854,1.5768,1.5847,1.5847,1.5847,1.5848,0,1.6076,1.6042,1.6046,1.6023,1.5987,1.5993,1.5956,1.5951,1.594,1.5916,1.5928,1.5905,1.5909,1.5886,1.5887,1.585,1.5844,1.5842,1.5842,1.584,1.584,1.583,1.5834,1.5845,1.5846,1.5846,1.5847,0,1.6008,1.601,1.5971,1.5961,1.5958,1.5931,1.5922,1.5901,1.5899,1.5869,1.5862,1.5859,1.5833,1.5833,1.5803,1.5804,1.5758,1.5764,1.5763,1.5764,1.5734,1.5736,1.5637,1.5624,1.5712,1.5712,1.5711,0,1.5964,1.5939,1.5927,1.5913,1.5905,1.5881,1.5867,1.5873,1.5857,1.584,1.582,1.5795,1.5775,1.5733,1.5727,1.5704,1.5709,1.5676,1.5705,1.5704,1.5707,1.5708,1.5706,1.5669,1.5668,1.5668,1.5667,0,1.5885,1.5887,1.5867,1.5847,1.583,1.5814,1.5799,1.5787,1.5791,1.5773,1.5747,1.5732,1.5702,1.5677,1.5655,1.5647,1.5657,1.5658,1.565,1.5647,1.5647,1.5646,1.5746,1.566,1.5661,1.5661,1.5662,1.5662,1.5827,1.5805,1.5794,1.5771,1.5761,1.5747,1.5727,1.5723,1.5702,1.5679,1.5683,1.5654,1.5641,1.5613,1.5603,1.558,1.5591,1.558,1.5576,1.5573,1.557,1.5652,1.5576,1.5576,1.5577,1.5577,1.5577,0,1.5747,1.5741,1.572,1.57,1.5682,1.5695,1.568,1.5664,1.5639,1.5626,1.5607,1.5577,1.5553,1.5547,1.5524,1.5507,1.5511,1.55,1.5501,1.5499,1.5561,1.557,1.5497,1.5497,1.5497,1.5497,1.5497,1.5497,1.5704,1.5668,1.5669,1.5629,1.5623,1.5595,1.5585,1.5573,1.5563,1.553,1.551,1.5507,1.5497,1.5473,1.5452,1.5451,1.5441,1.5429,1.5429,1.5487,1.5495,1.5502,1.5511,1.5427,1.5427,1.5369,1.5368,1.5368]}]]